Presure
92 132 136 140 144 137 134 132 133 130 123 120 162 116 119 183 181 183 131 187 141 116 194 176 194 195 192 148 184 209 217 225
124 136 144 140 137 102 99 130 132 134 150 204 173 130 128 130 119 135 137 121 123 128 194 187 202 185 200 199 203 223 205 248
129 138 137 140 140 139 142 142 152 153 188 125 159 114 165 193 200 118 123 124 184 194 190 206 189 201 199 201 204 205 228 243
131 126 132 138 128 125 126 135 139 183 179 196 140 190 203 151 118 127 124 183 191 201 200 204 197 207 203 203 212 219 248 222
139 138 124 125 127 129 131 115 179 191 160 196 193 127 118 123 125 179 195 194 198 198 212 207 201 202 208 206 223 181 150 229
116 126 138 141 140 130 155 185 189 192 193 201 139 157 120 191 188 193 191 206 205 210 203 204 202 209 204 225 229 239 236 220
126 129 126 138 142 150 196 191 190 188 192 193 119 146 195 191 194 198 211 209 201 196 200 206 216 216 230 226 252 238 236 231
131 140 125 192 194 195 194 193 197 196 131 114 188 195 194 204 208 207 213 205 202 208 209 229 239 229 237 234 241 233 227 230
133 157 121 196 209 201 195 193 193 192 197 198 192 198 216 216 209 206 207 205 233 229 253 232 232 241 240 226 215 206 222 221
246 253 213 201 199 204 203 204 206 207 215 220 219 210 210 205 204 214 231 228 237 229 239 237 227 213 213 214 216 216 208 202
233 239 232 231 225 222 223 228 223 219 208 205 201 202 206 223 221 231 224 231 231 226 212 207 211 209 212 207 203 203 204 195
218 216 212 210 209 207 205 204 203 203 204 207 221 221 218 223 222 227 222 215 207 210 213 208 206 210 205 196 188 213 240 243
224 218 217 216 215 214 215 217 224 224 217 217 224 223 224 217 211 204 212 213 220 255 252 250 241 242 269 229 272 216 213 212
226 215 219 218 217 217 218 216 216 216 215 216 214 208 206 213 213 221 236 246 249 252 262 260 222 217 218 213 210 204 204 202
215 216 223 223 217 218 222 219 212 208 204 207 212 209 213 228 226 224 227 227 229 230 221 217 217 213 211 208 203 204 202 204
214 220 213 222 214 211 204 207 210 204 202 218 229 231 229 226 222 216 216 216 213 209 211 214 209 205 206 207 210 216 205 217
222 213 212 202 204 211 192 185 212 206 207 217 221 215 214 219 219 211 213 216 205 203 206 208 205 211 211 211 207 207 218 226
202 200 205 205 194 209 208 211 205 205 203 199 202 220 226 221 219 214 214 214 202 209 204 204 202 203 206 203 216 226 253 294
203 208 201 204 205 201 203 203 201 202 212 213 216 218 216 212 215 215 214 207 212 211 211 205 200 206 206 273 283 287 283 282
203 204 201 204 200 204 205 200 193 193 205 206 206 213 220 221 217 209 210 211 208 208 209 208 222 271 282 281 267 274 264 328
Wind_Speed
41 77 77 74 76 70 68 61 61 64 66 69 91 70 73 85 93 92 72 94 74 71 97 87 96 95 90 80 85 90 89 80
65 82 85 75 74 46 45 66 68 68 84 82 94 71 71 74 67 75 71 67 69 74 104 93 99 90 97 93 92 91 87 62
80 83 78 79 77 74 79 78 73 90 89 63 83 61 91 101 95 67 69 71 98 104 100 101 95 95 98 94 93 88 85 65
78 70 75 81 64 60 62 76 79 100 99 92 75 101 94 79 68 73 71 97 106 109 108 103 101 99 96 96 97 91 66 69
88 88 68 69 72 75 76 59 96 97 82 95 99 68 67 72 75 99 105 109 112 106 104 104 99 99 100 96 92 74 77 62
60 72 85 90 90 76 88 91 97 94 97 100 74 81 70 98 101 105 108 117 110 106 102 99 99 97 95 86 82 72 66 70
69 74 70 91 93 92 93 95 94 97 97 99 70 82 102 105 105 110 108 106 101 98 99 102 97 95 84 80 70 72 71 66
77 89 68 84 88 91 94 96 98 101 74 69 96 103 106 113 109 102 103 100 103 102 102 93 81 83 77 72 66 65 68 65
78 81 67 80 89 90 91 91 92 96 100 102 97 102 101 98 96 95 96 97 94 91 77 83 79 74 70 72 72 76 72 68
50 54 73 79 83 87 90 92 96 97 99 95 90 90 90 90 92 94 88 87 82 84 77 76 74 76 76 75 72 75 75 76
45 51 57 61 68 72 73 74 75 76 78 79 84 86 89 86 85 82 82 79 77 76 79 81 80 80 77 77 77 80 83 82
46 48 51 54 57 62 65 68 71 74 77 81 79 79 80 77 77 75 77 78 80 79 79 81 83 82 80 82 84 84 81 80
46 49 54 57 60 64 67 68 65 66 68 70 70 69 69 72 75 78 78 79 78 77 78 79 80 80 78 76 77 76 82 85
41 44 45 48 50 52 54 56 58 59 61 63 66 71 73 73 75 75 73 72 72 72 70 68 76 78 77 80 81 85 88 91
41 43 43 44 46 47 46 47 53 56 62 67 67 71 72 71 71 72 72 74 71 69 75 77 76 80 83 85 89 90 89 94
38 38 41 38 41 45 51 51 52 61 65 61 62 62 66 69 71 74 75 76 77 79 80 80 81 83 87 90 93 97 90 99
31 36 38 46 47 46 59 62 52 58 61 60 62 66 70 72 74 77 78 79 80 83 84 84 88 92 93 96 98 101 108 111
40 45 46 48 55 47 49 51 55 58 64 70 71 68 67 69 74 77 79 81 86 86 89 90 91 95 99 98 104 107 108 108
44 42 49 48 47 51 52 55 58 65 67 67 68 69 71 73 76 78 82 86 88 91 93 95 96 100 102 106 106 107 106 107
43 44 47 48 52 53 55 58 65 69 70 73 73 74 76 77 80 84 86 90 93 96 99 102 106 108 106 105 103 106 102 110
Wind_Direction
274 284 285 284 284 289 291 289 286 283 277 280 293 284 286 286 296 290 291 294 292 287 296 295 293 298 297 286 295 300 301 300
286 282 284 291 292 287 285 289 290 291 293 280 289 283 284 287 288 288 287 290 290 290 295 295 294 295 295 298 298 300 297 294
285 284 292 292 291 292 292 294 288 294 276 287 285 286 288 285 285 292 293 292 292 292 294 293 293 295 295 294 294 295 298 292
285 291 293 293 293 292 292 295 293 279 284 270 290 283 280 286 290 293 292 291 291 291 291 292 293 292 292 294 296 296 289 289
277 282 293 293 295 295 295 291 278 272 280 272 276 290 293 294 294 286 287 285 289 289 291 291 292 294 294 293 293 288 286 282
282 290 286 285 288 292 282 267 270 269 274 271 287 283 295 281 284 284 286 286 285 289 290 291 290 288 288 291 291 287 283 283
288 288 289 288 286 283 262 267 268 272 273 274 293 287 280 281 283 283 283 284 286 288 288 287 287 288 289 288 285 284 283 278
285 282 288 255 257 259 263 264 265 265 290 293 279 278 279 279 278 282 284 284 285 286 285 285 285 286 287 282 285 283 282 280
281 272 291 253 251 254 259 266 270 270 270 271 275 275 277 279 281 280 280 282 285 284 288 286 288 290 288 289 288 286 284 284
250 249 250 254 257 258 261 262 263 265 268 272 273 276 277 279 281 282 284 284 287 288 289 289 288 288 288 286 286 284 286 286
253 254 253 254 255 258 261 264 267 270 272 275 276 278 280 281 282 286 286 288 289 289 290 290 290 288 287 287 287 286 285 285
259 259 261 263 263 265 267 268 270 273 275 275 277 278 279 283 284 285 286 287 288 285 284 284 285 284 284 285 288 291 294 294
258 259 258 261 264 265 267 270 273 275 275 277 281 282 283 283 285 285 282 284 288 295 295 295 295 295 289 294 287 290 290 291
267 270 268 267 267 269 272 275 278 280 281 280 280 283 283 283 286 292 298 299 298 298 297 296 292 292 291 292 291 292 294 295
270 269 272 273 275 278 278 278 278 280 281 283 286 288 291 297 298 298 298 296 295 295 292 292 292 292 292 291 292 290 291 289
274 275 278 277 279 279 280 281 286 289 289 297 301 301 301 299 297 295 295 293 292 291 293 293 291 291 291 292 293 292 292 292
274 278 278 279 279 285 284 290 295 296 298 301 303 301 300 297 295 293 294 293 293 293 294 296 298 298 297 296 297 299 295 292
278 279 277 280 284 295 300 301 301 301 298 297 298 302 301 295 293 294 294 295 296 296 298 298 298 299 299 300 296 294 295 295
277 284 286 292 296 296 299 300 301 301 303 302 304 303 299 297 298 298 298 298 298 297 295 298 301 299 299 303 302 301 300 297
283 291 294 298 299 302 303 301 299 298 302 302 303 305 306 304 302 300 300 299 299 301 300 300 298 306 307 306 302 302 301 305